| time (UTC) | temp F | wind direction | speed knots | gust knots | rain 1hr in | rain 24hr in | rain mn in | humidity % | barometer mb |
| 20260506022502 | 60 | 276 | 0.0 | 0.0 | 0.00 | 0.00 | 0.00 | 74 | 1021.0 |
| 20260506021502 | 61 | 121 | 0.0 | 0.0 | 0.00 | 0.00 | 0.00 | 71 | 1021.0 |
| 20260506020002 | 63 | 105 | 0.0 | 0.0 | 0.00 | 0.00 | 0.00 | 68 | 1021.0 |
| 20260506014503 | 64 | 119 | 0.0 | 0.0 | 0.00 | 0.00 | 0.00 | 66 | 1021.0 |
| 20260506013502 | 65 | 117 | 0.0 | 0.0 | 0.00 | 0.00 | 0.00 | 64 | 1021.0 |
| 20260506012502 | 66 | 111 | 0.0 | 0.0 | 0.00 | 0.00 | 0.00 | 62 | 1021.0 |
| 20260506011002 | 67 | 110 | 0.0 | 0.0 | 0.00 | 0.00 | 0.00 | 61 | 1021.0 |
| 20260506005502 | 69 | 335 | 0.0 | 0.0 | 0.00 | 0.00 | 0.00 | 56 | 1021.0 |
| 20260506004102 | 76 | 133 | 0.9 | 3.5 | 0.00 | 0.00 | 0.00 | 43 | 1024.0 |
| 20260505140502 | 62 | 168 | 0.0 | 0.9 | 0.00 | 0.00 | 0.00 | 67 | 1024.0 |
| 20260505125002 | 49 | 130 | 0.0 | 0.0 | 0.00 | 0.00 | 0.00 | 98 | 1023.4 |
| 20260505123502 | 48 | 114 | 0.0 | 0.0 | 0.00 | 0.00 | 0.00 | 99 | 1023.4 |
| 20260505122501 | 47 | 127 | 0.0 | 0.0 | 0.00 | 0.00 | 0.00 | 99 | 1023.4 |
| 20260505121004 | 46 | 108 | 0.0 | 0.9 | 0.00 | 0.00 | 0.00 | 99 | 1023.4 |
| 20260505115502 | 45 | 314 | 0.0 | 0.0 | 0.00 | 0.00 | 0.00 | 99 | 1023.0 |
| 20260505114501 | 44 | 89 | 0.0 | 0.0 | 0.00 | 0.00 | 0.00 | 99 | 1023.0 |
| 20260505113002 | 43 | 311 | 0.0 | 0.0 | 0.00 | 0.00 | 0.00 | 98 | 1023.0 |
| 20260505111502 | 43 | 193 | 0.0 | 0.0 | 0.00 | 0.00 | 0.00 | 98 | 1022.7 |
| 20260505102002 | 43 | 24 | 0.0 | 0.0 | 0.00 | 0.00 | 0.00 | 97 | 1022.4 |
| 20260505100502 | 43 | 72 | 0.0 | 0.0 | 0.00 | 0.00 | 0.00 | 97 | 1022.4 |
| 20260505095002 | 44 | 43 | 0.0 | 0.0 | 0.00 | 0.00 | 0.00 | 97 | 1022.4 |
| 20260505093502 | 44 | 56 | 0.0 | 0.0 | 0.00 | 0.00 | 0.00 | 97 | 1022.4 |
| 20260505092001 | 44 | 40 | 0.0 | 0.0 | 0.00 | 0.00 | 0.00 | 96 | 1022.7 |
| 20260505090501 | 44 | 112 | 0.0 | 0.0 | 0.00 | 0.00 | 0.00 | 96 | 1022.4 |
| 20260505085003 | 45 | 247 | 0.0 | 0.0 | 0.00 | 0.00 | 0.00 | 96 | 1022.7 |
| 20260505084002 | 45 | 211 | 0.0 | 0.0 | 0.00 | 0.00 | 0.00 | 96 | 1022.7 |
| 20260505082502 | 45 | 314 | 0.0 | 0.0 | 0.00 | 0.00 | 0.00 | 95 | 1022.7 |
| 20260505081002 | 45 | 80 | 0.0 | 0.0 | 0.00 | 0.00 | 0.00 | 95 | 1022.7 |
| 20260505075503 | 46 | 79 | 0.0 | 0.0 | 0.00 | 0.00 | 0.00 | 95 | 1022.4 |
| 20260505072003 | 47 | 98 | 0.0 | 0.0 | 0.00 | 0.00 | 0.00 | 95 | 1022.7 |
| 20260505070502 | 47 | 98 | 0.0 | 0.0 | 0.00 | 0.00 | 0.00 | 95 | 1022.4 |
| 20260505065004 | 47 | 98 | 0.0 | 0.0 | 0.00 | 0.00 | 0.00 | 94 | 1022.4 |
| 20260505064002 | 48 | 95 | 0.0 | 0.0 | 0.00 | 0.00 | 0.00 | 93 | 1022.4 |
| 20260505062506 | 48 | 97 | 0.0 | 0.0 | 0.00 | 0.00 | 0.00 | 93 | 1022.4 |
| 20260505061004 | 48 | 81 | 0.0 | 0.0 | 0.00 | 0.00 | 0.00 | 93 | 1022.7 |
| 20260505060002 | 49 | 80 | 0.0 | 0.0 | 0.00 | 0.00 | 0.00 | 93 | 1022.7 |
| 20260505053001 | 50 | 75 | 0.0 | 0.0 | 0.00 | 0.00 | 0.00 | 92 | 1022.7 |
| 20260505051502 | 50 | 72 | 0.0 | 0.0 | 0.00 | 0.00 | 0.00 | 92 | 1022.7 |
| 20260505041502 | 52 | 241 | 0.0 | 0.0 | 0.00 | 0.00 | 0.00 | 88 | 1022.7 |
| 20260505040019 | 53 | 35 | 0.0 | 0.0 | 0.00 | 0.00 | 0.00 | 86 | 1022.7 |
| 20260505034503 | 54 | 74 | 0.0 | 0.0 | 0.00 | 0.00 | 0.00 | 85 | 1022.7 |
| 20260505030001 | 56 | 12 | 0.0 | 0.0 | 0.00 | 0.00 | 0.00 | 80 | 1022.7 |
| 20260505024502 | 57 | 88 | 0.0 | 0.0 | 0.00 | 0.00 | 0.00 | 78 | 1022.7 |